Погода в Пасадене

США     34°09′09″N   118°07′53″W
темп.,
°C
ветер,
м/с
пор.,
м/с
влажн.,
%
обл.,
%
осадки,
мм/ч
давл.,
гПа
погр.,
м
3 августа, вт
вт323:00+25в11190 0.0 101693
02:00+24всв11210 0.0 101538
05:00+24всв11200 0.0 101519
08:00+29зюз11150 0.0 1015142
11:00+33юз32130 0.0 1014652
14:00+37ююз44100 0.0 10131107
17:00+36ююз32110 0.0 1011891
20:00+28ююв11220 0.0 1012143
4 августа, ср
ср423:00+26в11250 0.0 101369
02:00+25в11260 0.0 101248
05:00+25св11270 0.0 101240
08:00+29зюз11200 0.0 1013138
11:00+34ююз32180 0.0 1013621
14:00+37ююз44130 0.0 1011979
17:00+36ююз33140 0.0 1010794
20:00+29ююв11220 0.0 1011135
5 августа, чт
чт523:00+27в12250 0.0 101277
02:00+25вюв11290 0.0 101259
05:00+24св11310 0.0 101239
08:00+29ююз11250 0.0 1013168
11:00+33ююз42180 0.0 1013644
14:00+36ююз43110 0.0 1012966
17:00+34ююз33110 0.0 1011799
20:00+27юв11230 0.0 1011156
6 августа, пт
пт623:00+25в22230 0.0 1012100
02:00+24всв11232 0.0 101269
05:00+24св11221 0.0 101227
08:00+28ююз11162 0.0 1012173
11:00+32ююз33150 0.0 1012688
14:00+34ююз44120 0.0 1011979
17:00+32ю43170 0.0 1010763
20:00+25юв11340 0.0 1011207
7 августа, сб
сб723:00+23в22300 0.0 1012118
02:00+22в11250 0.0 101189
05:00+21всв11240 0.0 101163
08:00+25ю11200 0.0 1012170
11:00+30ююз43210 0.0 1012669
14:00+32ю44170 0.0 1011885
17:00+31ю43200 0.0 1011732
20:00+23ююв22400 0.0 1011222